This demonstration page uses our WeatherBlox Daily Observations layout. Learn more.

Left ArrowRight Arrow

40.92945, -100.16068

Hourly Observations for September 22, 2016

Temp ( °F °C ) Dew Point ( °F °C ) Humidity (%) Winds ( mph kmh ) Pressure ( in mb ) Visibility ( mi km ) Precip ( " mm )
12:15 am 00:15 Clear 70 21.3 60 15.3 69 69 SSE 5 7 29.77 1008 10 16 N/A
12:35 am 00:35 Clear 66 19.1 60 15.5 80 80 N 6 9 29.77 1008 10 16 N/A
12:55 am 00:55 Clear 69 20.5 59 15.2 72 72 N N/A 29.80 1009 10 16 N/A
1:15 am 01:15 Clear 71 21.5 59 15 67 67 N N/A 29.77 1008 10 16 N/A
1:35 am 01:35 Clear 70 21 59 14.8 68 68 SSW 5 7 29.77 1008 10 16 N/A
1:55 am 01:55 Clear 65 18.4 59 15 81 81 N N/A 29.77 1008 10 16 N/A
2:15 am 02:15 Clear 64 17.8 59 14.9 83 83 NNW 6 9 29.80 1009 10 16 N/A
2:35 am 02:35 Clear 63 17.1 58 14.5 85 85 N 6 9 29.83 1010 10 16 N/A
2:55 am 02:55 Clear 62 16.5 59 14.8 90 90 N 5 7 29.83 1010 10 16 N/A
3:15 am 03:15 Clear 62 16.5 59 15 91 91 N 7 11 29.83 1010 10 16 N/A
3:35 am 03:35 Clear 60 15.7 58 14.3 91 91 NW 5 7 29.83 1010 10 16 N/A
3:55 am 03:55 Clear 59 15 57 13.9 93 93 NW 3 6 29.85 1011 10 16 N/A
4:15 am 04:15 Clear 59 15 57 14 94 94 NW 5 7 29.85 1011 10 16 N/A
4:35 am 04:35 Partly Cloudy 61 15.9 59 14.8 93 93 N 6 9 29.83 1010 10 16 N/A
4:55 am 04:55 Mostly Cloudy 63 17 61 16 94 94 N 10 17 29.85 1011 7 11 N/A
5:15 am 05:15 Cloudy with Mist and Fog 64 17.5 62 16.5 94 94 N 10 17 29.85 1011 5 8 N/A
5:35 am 05:35 Cloudy with Mist and Fog 64 17.9 63 17 95 95 N 13 20 29.85 1011 4 6 N/A
5:55 am 05:55 Cloudy with Mist and Fog 64 18 63 17 94 94 N 8 13 29.85 1011 5 8 N/A
6:15 am 06:15 Cloudy with Mist and Fog 65 18.3 63 17.2 93 93 N 10 17 29.85 1011 5 8 N/A
6:35 am 06:35 Cloudy with Mist and Fog 65 18.5 63 17.2 92 92 N 9 15 29.85 1011 5 8 N/A
6:55 am 06:55 Cloudy with Mist and Fog 65 18.5 63 17.3 93 93 N 10 17 29.85 1011 4 6 N/A
7:15 am 07:15 Cloudy with Mist and Fog 65 18.1 63 17 93 93 N 9 15 29.88 1012 3 5 N/A
7:35 am 07:35 Cloudy with Mist and Fog 64 18 63 17 94 94 NNE 6 9 29.88 1012 4 6 N/A
7:55 am 07:55 Cloudy with Mist and Fog 64 18 62 16.8 93 93 N 10 17 29.88 1012 4 6 N/A
8:15 am 08:15 Cloudy with Mist and Fog 64 18 62 16.8 93 93 N 9 15 29.88 1012 3 4 N/A
8:35 am 08:35 Cloudy with Mist and Fog 64 17.8 62 16.7 93 93 NNE 7 11 29.88 1012 3 4 N/A
8:55 am 08:55 Cloudy with Mist and Fog 64 17.7 62 16.6 93 93 N 10 17 29.88 1012 3 5 N/A
9:15 am 09:15 Cloudy with Mist and Fog 64 18 62 16.8 93 93 NNE 6 9 29.88 1012 3 5 N/A
9:35 am 09:35 Cloudy with Mist and Fog 64 18 62 16.8 93 93 NNE 7 11 29.91 1013 4 6 N/A
9:55 am 09:55 Cloudy with Mist and Fog 65 18.1 62 16.9 93 93 NNE 8 13 29.91 1013 4 6 N/A
10:15 am 10:15 Cloudy with Mist and Fog 65 18.2 62 16.9 92 92 N 8 13 29.91 1013 4 6 N/A
10:35 am 10:35 Cloudy with Mist and Fog 65 18.5 63 17 91 91 N 6 9 29.91 1013 5 8 N/A
10:55 am 10:55 Cloudy 65 18.6 63 17 90 90 NNE 8 13 29.91 1013 7 11 N/A
11:15 am 11:15 Cloudy with Mist and Fog 65 18.6 63 17 90 90 N 7 11 29.91 1013 5 8 N/A
11:35 am 11:35 Cloudy 66 18.9 63 17.1 89 89 N 7 11 29.91 1013 7 11 N/A
11:55 am 11:55 Cloudy 66 19 63 17 88 88 N 8 13 29.91 1013 7 11 N/A
12:15 pm 12:15 Cloudy 67 19.2 63 17 87 87 N 8 13 29.91 1013 7 11 N/A
12:35 pm 12:35 Cloudy with Mist and Fog 66 19 62 16.7 87 87 N 6 9 29.91 1013 5 8 N/A
12:55 pm 12:55 Cloudy 66 19.1 62 16.9 87 87 NE 3 6 29.91 1013 7 11 N/A
1:15 pm 13:15 Cloudy 67 19.3 62 16.9 86 86 NE 8 13 29.91 1013 7 11 N/A
1:35 pm 13:35 Cloudy 67 19.6 62 16.8 84 84 NNE 6 9 29.88 1012 10 16 N/A
1:55 pm 13:55 Cloudy 67 19.6 62 16.7 83 83 NE 6 9 29.88 1012 10 16 N/A
2:15 pm 14:15 Cloudy 67 19.7 62 16.7 83 83 NNE 7 11 29.88 1012 10 16 N/A
2:35 pm 14:35 Cloudy 68 19.8 62 16.7 82 82 NE 9 15 29.88 1012 10 16 N/A
2:55 pm 14:55 Cloudy 67 19.7 62 16.6 82 82 NE 12 19 29.85 1011 10 16 N/A
3:15 pm 15:15 Cloudy 67 19.5 62 16.5 83 83 NE 7 11 29.85 1011 10 16 N/A
3:35 pm 15:35 Cloudy 67 19.5 62 16.4 82 82 ENE 7 11 29.85 1011 10 16 N/A
3:55 pm 15:55 Cloudy 67 19.5 62 16.5 83 83 E 7 11 29.91 1013 10 16 N/A
4:15 pm 16:15 Cloudy 67 19.2 62 16.6 85 85 NE 6 9 29.91 1013 10 16 N/A
4:35 pm 16:35 Cloudy 67 19.5 62 16.5 83 83 NE 6 9 29.91 1013 10 16 N/A
4:55 pm 16:55 Cloudy 67 19.6 62 16.6 83 83 NE 7 11 29.85 1011 10 16 N/A
5:15 pm 17:15 Cloudy 68 20 62 16.7 81 81 NE 6 9 29.85 1011 10 16 N/A
5:35 pm 17:35 Cloudy with Haze 68 20 62 16.6 81 81 NE 7 11 29.85 1011 3 4 N/A
5:55 pm 17:55 Mostly Cloudy with Haze 68 20.1 62 16.7 81 81 NE 7 11 29.83 1010 3 5 N/A
6:15 pm 18:15 Partly Cloudy 68 19.9 62 16.4 80 80 NE 9 15 29.83 1010 10 16 N/A
6:35 pm 18:35 Mostly Cloudy 68 19.9 62 16.4 80 80 ENE 7 11 29.83 1010 7 11 N/A
6:55 pm 18:55 Hazy 67 19.5 62 16.4 82 82 NE 6 9 29.83 1010 4 6 N/A
7:15 pm 19:15 Partly Cloudy with Mist and Fog 66 19.1 62 16.5 85 85 NE 6 9 29.83 1010 4 6 N/A
7:35 pm 19:35 Sunny with Mist and Fog 66 18.7 62 16.5 87 87 NE 7 11 29.85 1011 5 8 N/A
7:55 pm 19:55 Clear with Mist and Fog 65 18.2 61 16.3 89 89 ENE 6 9 29.85 1011 5 8 N/A
8:15 pm 20:15 Partly Cloudy 64 18 61 16.3 90 90 NE 7 11 29.85 1011 7 11 N/A
8:35 pm 20:35 Mostly Cloudy 65 18.2 62 16.6 90 90 NE 8 13 29.85 1011 7 11 N/A
8:55 pm 20:55 Cloudy with Mist and Fog 65 18.2 62 16.5 90 90 NE 8 13 29.85 1011 4 6 N/A
9:15 pm 21:15 Partly Cloudy 64 18 62 16.5 91 91 NE 5 7 29.85 1011 10 16 N/A
9:35 pm 21:35 Clear with Mist and Fog 64 17.7 61 16.3 92 92 NE 5 7 29.85 1011 5 8 N/A
9:55 pm 21:55 Clear 63 17.2 61 16 93 93 ENE 5 7 29.85 1011 10 16 N/A
10:15 pm 22:15 Clear 62 16.8 60 15.7 93 93 ENE 5 7 29.85 1011 7 11 N/A
10:35 pm 22:35 Clear 63 17 61 16 94 94 ENE 5 7 29.85 1011 7 11 N/A
10:55 pm 22:55 Partly Cloudy 63 17 61 16 94 94 ENE 3 6 29.85 1011 7 11 N/A
11:15 pm 23:15 Cloudy 63 17.3 61 16.3 94 94 ENE 6 9 29.85 1011 7 11 N/A
11:55 pm 23:55 Cloudy with Mist and Fog 64 17.6 62 16.7 95 95 ENE 9 15 29.85 1011 4 6 N/A

Powered by AerisWeather